| time (UTC) | temp C | wind direction | speed KPH | gust KPH | rain 1hr cm | rain 24hr cm | rain mn cm | humidity % | barometer mb |
| 20260510113017 | 17 | 68 | 9.7 | 24.1 | 0.00 | 0.00 | 0.00 | 51 | 1013.8 |
| 20260510111516 | 18 | 23 | 6.4 | 22.5 | 0.00 | 0.00 | 0.00 | 48 | 1014.0 |
| 20260510110016 | 17 | 68 | 8.0 | 27.4 | 0.00 | 0.00 | 0.00 | 50 | 1014.1 |
| 20260510104516 | 18 | 23 | 6.4 | 22.5 | 0.00 | 0.00 | 0.00 | 48 | 1014.2 |
| 20260510103016 | 17 | 68 | 6.4 | 22.5 | 0.00 | 0.00 | 0.00 | 50 | 1014.3 |
| 20260510101516 | 17 | 23 | 6.4 | 19.3 | 0.00 | 0.00 | 0.00 | 50 | 1014.5 |
| 20260510100017 | 17 | 45 | 8.0 | 25.7 | 0.00 | 0.00 | 0.00 | 52 | 1014.6 |
| 20260510094516 | 17 | 68 | 8.0 | 22.5 | 0.00 | 0.00 | 0.00 | 56 | 1014.7 |
| 20260510093016 | 17 | 23 | 8.0 | 25.7 | 0.00 | 0.00 | 0.00 | 58 | 1014.8 |
| 20260510091516 | 16 | 68 | 8.0 | 22.5 | 0.00 | 0.00 | 0.00 | 57 | 1014.9 |
| 20260510090037 | 16 | 45 | 8.0 | 22.5 | 0.00 | 0.00 | 0.00 | 60 | 1014.9 |
| 20260510084517 | 15 | 45 | 6.4 | 22.5 | 0.00 | 0.00 | 0.00 | 60 | 1015.1 |
| 20260510083017 | 15 | 68 | 3.2 | 17.7 | 0.00 | 0.00 | 0.00 | 60 | 1015.1 |
| 20260510081516 | 16 | 23 | 6.4 | 24.1 | 0.00 | 0.00 | 0.00 | 61 | 1015.2 |
| 20260510080016 | 15 | 68 | 6.4 | 20.9 | 0.00 | 0.00 | 0.00 | 62 | 1015.4 |
| 20260510074516 | 15 | 68 | 4.8 | 16.1 | 0.00 | 0.00 | 0.00 | 62 | 1015.5 |
| 20260510073016 | 15 | 45 | 6.4 | 22.5 | 0.00 | 0.00 | 0.00 | 66 | 1015.5 |
| 20260510071516 | 14 | 45 | 4.8 | 17.7 | 0.00 | 0.00 | 0.00 | 66 | 1015.4 |
| 20260510070017 | 13 | 68 | 8.0 | 22.5 | 0.00 | 0.00 | 0.00 | 71 | 1015.4 |
| 20260510064517 | 13 | 68 | 8.0 | 29.0 | 0.00 | 0.00 | 0.00 | 72 | 1015.4 |
| 20260510063036 | 13 | 68 | 4.8 | 17.7 | 0.00 | 0.00 | 0.00 | 77 | 1015.5 |
| 20260510061516 | 12 | 45 | 4.8 | 24.1 | 0.00 | 0.00 | 0.00 | 78 | 1015.5 |
| 20260510060016 | 11 | 45 | 4.8 | 16.1 | 0.00 | 0.00 | 0.00 | 83 | 1015.5 |
| 20260510054516 | 10 | 68 | 3.2 | 16.1 | 0.00 | 0.00 | 0.00 | 85 | 1015.6 |
| 20260510053036 | 10 | 45 | 3.2 | 16.1 | 0.00 | 0.00 | 0.00 | 86 | 1015.5 |
| 20260510051536 | 10 | 23 | 1.6 | 9.7 | 0.00 | 0.00 | 0.00 | 87 | 1015.4 |
| 20260510050036 | 10 | 23 | 1.6 | 11.3 | 0.00 | 0.00 | 0.00 | 87 | 1015.4 |
| 20260510044536 | 10 | 23 | 1.6 | 8.0 | 0.00 | 0.00 | 0.00 | 87 | 1015.3 |
| 20260510043036 | 10 | 0.0 | 6.4 | 0.00 | 0.00 | 0.00 | 87 | 1015.5 | |
| 20260510041516 | 9 | 0.0 | 12.9 | 0.00 | 0.00 | 0.00 | 87 | 1015.5 | |
| 20260510040017 | 9 | 0.0 | 12.9 | 0.00 | 0.00 | 0.00 | 87 | 1015.5 | |
| 20260510034536 | 10 | 0.0 | 4.8 | 0.00 | 0.00 | 0.00 | 88 | 1015.4 | |
| 20260510033016 | 10 | 0.0 | 3.2 | 0.00 | 0.00 | 0.00 | 88 | 1015.5 | |
| 20260510031516 | 10 | 0.0 | 4.8 | 0.00 | 0.00 | 0.00 | 88 | 1015.5 | |
| 20260510030016 | 10 | 0.0 | 6.4 | 0.00 | 0.00 | 0.00 | 88 | 1015.4 | |
| 20260510024516 | 10 | 0.0 | 3.2 | 0.00 | 0.00 | 0.00 | 88 | 1015.5 | |
| 20260510023016 | 10 | 0.0 | 1.6 | 0.00 | 0.00 | 0.00 | 87 | 1015.6 | |
| 20260510021516 | 10 | 0.0 | 1.6 | 0.00 | 0.00 | 0.00 | 87 | 1015.6 | |
| 20260510020016 | 10 | 0.0 | 6.4 | 0.00 | 0.00 | 0.00 | 87 | 1015.6 | |
| 20260510014516 | 10 | 0.0 | 4.8 | 0.00 | 0.00 | 0.00 | 86 | 1015.7 | |
| 20260510013016 | 11 | 0.0 | 4.8 | 0.00 | 0.00 | 0.00 | 86 | 1015.9 | |
| 20260510011516 | 11 | 0.0 | 6.4 | 0.00 | 0.00 | 0.00 | 85 | 1015.9 | |
| 20260510010016 | 11 | 0.0 | 6.4 | 0.00 | 0.00 | 0.00 | 85 | 1015.8 | |
| 20260510004516 | 10 | 0.0 | 6.4 | 0.00 | 0.00 | 0.00 | 85 | 1015.8 | |
| 20260510003016 | 10 | 0.0 | 6.4 | 0.00 | 0.00 | 0.00 | 84 | 1016.0 | |
| 20260510001516 | 11 | 0.0 | 6.4 | 0.00 | 0.00 | 0.00 | 83 | 1016.1 | |
| 20260510000016 | 11 | 0.0 | 4.8 | 0.00 | 0.00 | 0.00 | 82 | 1016.2 | |
| 20260509234516 | 11 | 0.0 | 3.2 | 0.00 | 0.00 | 0.00 | 81 | 1016.3 | |
| 20260509233016 | 11 | 0.0 | 1.6 | 0.00 | 0.00 | 0.00 | 80 | 1016.3 | |
| 20260509231516 | 11 | 0.0 | 3.2 | 0.00 | 0.00 | 0.00 | 78 | 1016.3 | |
| 20260509230016 | 11 | 0.0 | 1.6 | 0.00 | 0.00 | 0.00 | 77 | 1016.2 | |
| 20260509224516 | 11 | 0.0 | 4.8 | 0.00 | 0.00 | 0.00 | 76 | 1016.3 | |
| 20260509223056 | 12 | 0.0 | 1.6 | 0.00 | 0.00 | 0.00 | 75 | 1016.3 | |
| 20260509221516 | 12 | 0.0 | 1.6 | 0.00 | 0.00 | 0.00 | 74 | 1016.2 | |
| 20260509220018 | 12 | 0.0 | 3.2 | 0.00 | 0.00 | 0.00 | 73 | 1016.1 | |
| 20260509214516 | 12 | 0.0 | 1.6 | 0.00 | 0.00 | 0.00 | 72 | 1016.1 | |
| 20260509213037 | 12 | 0.0 | 3.2 | 0.00 | 0.00 | 0.00 | 70 | 1016.1 | |
| 20260509211517 | 13 | 0.0 | 0.0 | 0.00 | 0.00 | 0.00 | 68 | 1016.1 | |
| 20260509210017 | 13 | 0.0 | 0.0 | 0.00 | 0.00 | 0.00 | 67 | 1016.0 | |
| 20260509204537 | 14 | 0.0 | 1.6 | 0.00 | 0.00 | 0.00 | 65 | 1016.0 | |
| 20260509203017 | 15 | 0.0 | 1.6 | 0.00 | 0.00 | 0.00 | 63 | 1016.0 | |
| 20260509201517 | 15 | 0.0 | 8.0 | 0.00 | 0.00 | 0.00 | 61 | 1016.0 | |
| 20260509200017 | 15 | 0.0 | 4.8 | 0.00 | 0.00 | 0.00 | 61 | 1016.0 | |
| 20260509194516 | 16 | 0.0 | 4.8 | 0.00 | 0.00 | 0.00 | 59 | 1015.8 | |
| 20260509193036 | 16 | 0.0 | 3.2 | 0.00 | 0.00 | 0.00 | 59 | 1015.9 | |
| 20260509191516 | 16 | 0.0 | 1.6 | 0.00 | 0.00 | 0.00 | 58 | 1015.8 | |
| 20260509190037 | 17 | 0.0 | 1.6 | 0.00 | 0.00 | 0.00 | 56 | 1015.7 | |
| 20260509184517 | 17 | 0.0 | 1.6 | 0.00 | 0.00 | 0.00 | 54 | 1015.7 | |
| 20260509183017 | 18 | 0.0 | 9.7 | 0.00 | 0.00 | 0.00 | 51 | 1015.6 | |
| 20260509181517 | 18 | 0.0 | 8.0 | 0.00 | 0.00 | 0.00 | 50 | 1015.5 | |
| 20260509180017 | 19 | 0.0 | 6.4 | 0.00 | 0.00 | 0.00 | 48 | 1015.4 | |
| 20260509174517 | 20 | 0.0 | 6.4 | 0.00 | 0.00 | 0.00 | 46 | 1015.3 | |
| 20260509173017 | 20 | 23 | 1.6 | 12.9 | 0.00 | 0.00 | 0.00 | 46 | 1015.3 |
| 20260509171516 | 20 | 23 | 1.6 | 8.0 | 0.00 | 0.00 | 0.00 | 46 | 1015.3 |
| 20260509170016 | 21 | 0 | 1.6 | 8.0 | 0.00 | 0.00 | 0.00 | 45 | 1015.5 |
| 20260509164536 | 21 | 23 | 1.6 | 11.3 | 0.00 | 0.00 | 0.00 | 43 | 1015.5 |
| 20260509163016 | 21 | 23 | 1.6 | 6.4 | 0.00 | 0.00 | 0.00 | 44 | 1015.5 |
| 20260509161516 | 21 | 23 | 1.6 | 19.3 | 0.00 | 0.00 | 0.00 | 44 | 1015.4 |
| 20260509160017 | 22 | 45 | 1.6 | 12.9 | 0.00 | 0.00 | 0.00 | 41 | 1015.4 |
| 20260509154516 | 21 | 0.0 | 8.0 | 0.00 | 0.00 | 0.00 | 42 | 1015.5 | |
| 20260509153016 | 21 | 90 | 1.6 | 12.9 | 0.00 | 0.00 | 0.00 | 43 | 1015.5 |
| 20260509151536 | 21 | 68 | 1.6 | 11.3 | 0.00 | 0.00 | 0.00 | 42 | 1015.5 |
| 20260509150016 | 21 | 68 | 1.6 | 14.5 | 0.00 | 0.00 | 0.00 | 43 | 1015.6 |
| 20260509144517 | 21 | 113 | 3.2 | 22.5 | 0.00 | 0.00 | 0.00 | 44 | 1015.6 |
| 20260509143016 | 21 | 68 | 1.6 | 8.0 | 0.00 | 0.00 | 0.00 | 44 | 1015.8 |
| 20260509141516 | 21 | 68 | 3.2 | 14.5 | 0.00 | 0.00 | 0.00 | 45 | 1015.9 |
| 20260509140016 | 21 | 0 | 1.6 | 9.7 | 0.00 | 0.00 | 0.00 | 42 | 1016.0 |
| 20260509134516 | 21 | 68 | 3.2 | 12.9 | 0.00 | 0.00 | 0.00 | 44 | 1016.2 |
| 20260509133016 | 21 | 135 | 1.6 | 17.7 | 0.00 | 0.00 | 0.00 | 45 | 1016.4 |
| 20260509131536 | 22 | 68 | 3.2 | 17.7 | 0.00 | 0.00 | 0.00 | 41 | 1016.5 |
| 20260509130016 | 21 | 270 | 1.6 | 9.7 | 0.00 | 0.00 | 0.00 | 45 | 1016.6 |
| 20260509124516 | 21 | 45 | 1.6 | 11.3 | 0.00 | 0.00 | 0.00 | 46 | 1016.9 |
| 20260509123016 | 21 | 338 | 1.6 | 8.0 | 0.00 | 0.00 | 0.00 | 45 | 1017.0 |
| 20260509121516 | 21 | 90 | 3.2 | 11.3 | 0.00 | 0.00 | 0.00 | 45 | 1017.1 |
| 20260509120016 | 20 | 68 | 3.2 | 11.3 | 0.00 | 0.00 | 0.00 | 46 | 1017.3 |
| 20260509114656 | 21 | 135 | 1.6 | 12.9 | 0.00 | 0.00 | 0.00 | 44 | 1017.5 |